Time,TemperatureF,DewpointF,PressureIn,WindDirection,WindDirectionDegrees,WindSpeedMPH,WindSpeedGustMPH,Humidity,HourlyPrecipIn,Conditions,Clouds,dailyrainin,SoftwareType,DateUTC
2013-06-11 10:05:00,76.8,30.1,26.20,North,0,0.0,0.0,18,0.00,,---,0.00,VWS V13.01,2013-06-11 16:05:00,
2013-06-11 10:15:00,76.8,30.1,26.20,North,0,0.0,0.0,18,0.00,,---,0.00,VWS V13.01,2013-06-11 16:15:00,
2013-06-11 10:16:00,76.8,30.1,26.20,North,0,0.0,0.0,18,0.00,,---,0.00,VWS V13.01,2013-06-11 16:16:00,
2013-06-11 10:17:00,76.8,30.1,26.20,North,0,0.0,0.0,18,0.00,,---,0.00,VWS V13.01,2013-06-11 16:17:00,
2013-06-11 10:22:00,76.5,29.9,26.20,North,0,0.0,0.0,18,0.00,,---,0.00,VWS V13.01,2013-06-11 16:22:00,
2013-06-11 10:27:00,76.1,29.6,26.20,North,0,0.0,0.0,18,0.00,,---,0.00,VWS V13.01,2013-06-11 16:27:00,
2013-06-11 10:32:00,75.9,29.4,26.20,North,0,0.0,0.0,18,0.00,,---,0.00,VWS V13.01,2013-06-11 16:32:00,
2013-06-11 10:37:00,75.9,29.4,26.20,North,0,0.0,0.0,18,0.00,,---,0.00,VWS V13.01,2013-06-11 16:37:00,
2013-06-11 10:42:00,75.7,29.3,26.20,North,0,0.0,0.0,18,0.00,,---,0.00,VWS V13.01,2013-06-11 16:42:00,
2013-06-11 10:47:00,76.6,30.0,26.20,North,0,0.0,0.0,18,0.00,,---,0.00,VWS V13.01,2013-06-11 16:47:00,
2013-06-11 10:52:00,77.2,30.4,26.20,North,0,0.0,0.0,18,0.00,,---,0.00,VWS V13.01,2013-06-11 16:52:00,
2013-06-11 10:57:00,77.0,30.3,26.20,North,0,0.0,0.0,18,0.00,,---,0.00,VWS V13.01,2013-06-11 16:57:00,
2013-06-11 11:02:00,77.4,30.6,26.20,North,0,0.0,0.0,18,0.00,,---,0.00,VWS V13.01,2013-06-11 17:02:00,
2013-06-11 11:08:00,77.5,30.7,26.20,North,0,0.0,0.0,18,0.00,,---,0.00,VWS V13.01,2013-06-11 17:08:00,
2013-06-11 11:13:00,77.9,31.0,26.20,North,0,0.0,0.0,18,0.00,,---,0.00,VWS V13.01,2013-06-11 17:13:00,
2013-06-11 11:18:00,77.7,30.9,26.20,North,0,0.0,0.0,18,0.00,,---,0.00,VWS V13.01,2013-06-11 17:18:00,
2013-06-11 11:23:00,77.4,30.6,26.20,North,0,0.0,0.0,18,0.00,,---,0.00,VWS V13.01,2013-06-11 17:23:00,
2013-06-11 11:28:00,76.5,29.9,26.20,North,0,0.0,0.0,18,0.00,,---,0.00,VWS V13.01,2013-06-11 17:28:00,
2013-06-11 11:33:00,76.3,29.7,26.20,North,0,0.0,0.0,18,0.00,,---,0.00,VWS V13.01,2013-06-11 17:33:00,
2013-06-11 11:38:00,76.3,29.7,26.17,North,0,0.0,0.0,18,0.00,,---,0.00,VWS V13.01,2013-06-11 17:38:00,
2013-06-11 11:43:00,76.3,29.7,26.17,North,0,0.0,0.0,18,0.00,,---,0.00,VWS V13.01,2013-06-11 17:43:00,
2013-06-11 11:48:00,76.3,29.7,26.17,North,0,0.0,0.0,18,0.00,,---,0.00,VWS V13.01,2013-06-11 17:48:00,
2013-06-11 11:53:00,76.6,30.0,26.17,North,0,0.0,0.0,18,0.00,,---,0.00,VWS V13.01,2013-06-11 17:53:00,
2013-06-11 11:58:00,77.0,30.3,26.17,North,0,0.0,0.0,18,0.00,,---,0.00,VWS V13.01,2013-06-11 17:58:00,
2013-06-11 12:03:00,77.2,30.4,26.17,North,0,0.0,0.0,18,0.00,,---,0.00,VWS V13.01,2013-06-11 18:03:00,
2013-06-11 12:08:00,77.2,30.4,26.17,North,0,0.0,0.0,18,0.00,,---,0.00,VWS V13.01,2013-06-11 18:08:00,
2013-06-11 12:13:00,77.5,30.7,26.17,North,0,0.0,0.0,18,0.00,,---,0.00,VWS V13.01,2013-06-11 18:13:00,
2013-06-11 12:19:00,77.4,30.6,26.17,North,0,0.0,0.0,18,0.00,,---,0.00,VWS V13.01,2013-06-11 18:19:00,
2013-06-11 12:24:00,77.4,30.6,26.17,North,0,0.0,0.0,18,0.00,,---,0.00,VWS V13.01,2013-06-11 18:24:00,
2013-06-11 12:29:00,77.4,30.6,26.17,North,0,0.0,0.0,18,0.00,,---,0.00,VWS V13.01,2013-06-11 18:29:00,
2013-06-11 12:34:00,77.4,30.6,26.17,North,0,0.0,0.0,18,0.00,,---,0.00,VWS V13.01,2013-06-11 18:34:00,
2013-06-11 12:39:00,77.5,30.7,26.17,North,0,0.0,0.0,18,0.00,,---,0.00,VWS V13.01,2013-06-11 18:39:00,
2013-06-11 12:44:00,77.5,30.7,26.17,North,0,0.0,0.0,18,0.00,,---,0.00,VWS V13.01,2013-06-11 18:44:00,
2013-06-11 12:49:00,77.5,30.7,26.17,North,0,0.0,0.0,18,0.00,,---,0.00,VWS V13.01,2013-06-11 18:49:00,
2013-06-11 12:54:00,77.7,30.9,26.17,North,0,0.0,0.0,18,0.00,,---,0.00,VWS V13.01,2013-06-11 18:54:00,
2013-06-11 12:59:00,77.5,33.3,26.17,North,0,0.0,0.0,20,0.00,,---,0.00,VWS V13.01,2013-06-11 18:59:00,
2013-06-11 13:04:00,77.5,30.7,26.17,North,0,0.0,0.0,18,0.00,,---,0.00,VWS V13.01,2013-06-11 19:04:00,
2013-06-11 13:09:00,77.0,30.3,26.14,North,0,0.0,0.0,18,0.00,,---,0.00,VWS V13.01,2013-06-11 19:09:00,
2013-06-11 13:14:00,76.5,29.9,26.14,North,0,0.0,0.0,18,0.00,,---,0.00,VWS V13.01,2013-06-11 19:14:00,
2013-06-11 13:20:00,76.1,29.6,26.14,North,0,0.0,0.0,18,0.00,,---,0.00,VWS V13.01,2013-06-11 19:20:00,
2013-06-11 13:25:00,76.1,29.6,26.14,North,0,0.0,0.0,18,0.00,,---,0.00,VWS V13.01,2013-06-11 19:25:00,
2013-06-11 13:30:00,76.5,32.5,26.14,North,0,0.0,0.0,20,0.00,,---,0.00,VWS V13.01,2013-06-11 19:30:00,
2013-06-11 13:35:00,76.8,32.8,26.14,North,0,0.0,0.0,20,0.00,,---,0.00,VWS V13.01,2013-06-11 19:35:00,
2013-06-11 13:40:00,76.8,32.8,26.14,North,0,0.0,0.0,20,0.00,,---,0.00,VWS V13.01,2013-06-11 19:40:00,
2013-06-11 13:45:00,77.0,32.9,26.14,North,0,0.0,0.0,20,0.00,,---,0.00,VWS V13.01,2013-06-11 19:45:00,
2013-06-11 13:50:00,76.8,32.8,26.14,North,0,0.0,0.0,20,0.00,,---,0.00,VWS V13.01,2013-06-11 19:50:00,
2013-06-11 13:55:00,76.6,32.6,26.14,North,0,0.0,0.0,20,0.00,,---,0.00,VWS V13.01,2013-06-11 19:55:00,
2013-06-11 14:00:00,76.1,32.2,26.14,North,0,0.0,0.0,20,0.00,,---,0.00,VWS V13.01,2013-06-11 20:00:00,
2013-06-11 14:05:00,75.9,32.0,26.14,North,0,0.0,0.0,20,0.00,,---,0.00,VWS V13.01,2013-06-11 20:05:00,
2013-06-11 14:10:00,75.9,32.0,26.11,North,0,0.0,0.0,20,0.00,,---,0.00,VWS V13.01,2013-06-11 20:10:00,
2013-06-11 14:15:00,76.3,32.3,26.11,North,0,0.0,0.0,20,0.00,,---,0.00,VWS V13.01,2013-06-11 20:15:00,
2013-06-11 14:20:00,76.6,32.6,26.11,North,0,0.0,0.0,20,0.00,,---,0.00,VWS V13.01,2013-06-11 20:20:00,
2013-06-11 14:25:00,76.6,32.6,26.11,North,0,0.0,0.0,20,0.00,,---,0.00,VWS V13.01,2013-06-11 20:25:00,
2013-06-11 14:31:00,76.8,32.8,26.11,North,0,0.0,0.0,20,0.00,,---,0.00,VWS V13.01,2013-06-11 20:31:00,
2013-06-11 14:36:00,76.8,32.8,26.11,North,0,0.0,0.0,20,0.00,,---,0.00,VWS V13.01,2013-06-11 20:36:00,
2013-06-11 14:41:00,76.3,32.3,26.14,North,0,0.0,0.0,20,0.00,,---,0.00,VWS V13.01,2013-06-11 20:41:00,
2013-06-11 14:46:00,75.7,31.9,26.14,North,0,0.0,0.0,20,0.00,,---,0.00,VWS V13.01,2013-06-11 20:46:00,
2013-06-11 14:51:00,75.4,31.6,26.14,North,0,0.0,0.0,20,0.00,,---,0.00,VWS V13.01,2013-06-11 20:51:00,
2013-06-11 14:57:00,75.6,31.7,26.11,North,0,0.0,0.0,20,0.00,,---,0.00,VWS V13.01,2013-06-11 20:57:00,
2013-06-11 15:02:00,75.9,32.0,26.11,North,0,0.0,0.0,20,0.00,,---,0.00,VWS V13.01,2013-06-11 21:02:00,
2013-06-11 15:07:00,76.3,32.3,26.11,North,0,0.0,0.0,20,0.00,,---,0.00,VWS V13.01,2013-06-11 21:07:00,
2013-06-11 15:12:00,76.8,32.8,26.11,North,0,0.0,0.0,20,0.00,,---,0.00,VWS V13.01,2013-06-11 21:12:00,
2013-06-11 15:17:00,77.9,34.9,26.11,North,0,0.0,0.0,21,0.00,,---,0.00,VWS V13.01,2013-06-11 21:17:00,
2013-06-11 15:22:00,77.5,34.6,26.11,North,0,0.0,0.0,21,0.00,,---,0.00,VWS V13.01,2013-06-11 21:22:00,
2013-06-11 15:27:00,77.2,34.3,26.11,North,0,0.0,0.0,21,0.00,,---,0.00,VWS V13.01,2013-06-11 21:27:00,
2013-06-11 15:32:00,76.5,33.7,26.11,North,0,0.0,0.0,21,0.00,,---,0.00,VWS V13.01,2013-06-11 21:32:00,
2013-06-11 15:37:00,77.0,34.1,26.11,North,0,0.0,0.0,21,0.00,,---,0.00,VWS V13.01,2013-06-11 21:37:00,
2013-06-11 15:42:00,77.4,34.4,26.11,North,0,0.0,0.0,21,0.00,,---,0.00,VWS V13.01,2013-06-11 21:42:00,
2013-06-11 15:47:00,77.0,34.1,26.11,North,0,0.0,0.0,21,0.00,,---,0.00,VWS V13.01,2013-06-11 21:47:00,
2013-06-11 15:53:00,76.5,33.7,26.11,North,0,0.0,0.0,21,0.00,,---,0.00,VWS V13.01,2013-06-11 21:53:00,
2013-06-11 15:58:00,76.3,34.7,26.11,North,0,0.0,0.0,22,0.00,,---,0.00,VWS V13.01,2013-06-11 21:58:00,
2013-06-11 16:03:00,75.4,33.9,26.11,North,0,0.0,0.0,22,0.00,,---,0.00,VWS V13.01,2013-06-11 22:03:00,
2013-06-11 16:08:00,74.5,34.3,26.11,North,0,0.0,0.0,23,0.00,,---,0.00,VWS V13.01,2013-06-11 22:08:00,
2013-06-11 16:13:00,73.8,35.8,26.11,North,0,0.0,0.0,25,0.00,,---,0.00,VWS V13.01,2013-06-11 22:13:00,
2013-06-11 16:18:00,73.4,36.5,26.11,North,0,0.0,0.0,26,0.00,,---,0.00,VWS V13.01,2013-06-11 22:18:00,
2013-06-11 16:23:00,73.0,37.1,26.11,North,0,0.0,0.0,27,0.00,,---,0.00,VWS V13.01,2013-06-11 22:23:00,
2013-06-11 16:28:00,72.7,37.7,26.11,North,0,0.0,0.0,28,0.00,,---,0.00,VWS V13.01,2013-06-11 22:28:00,
2013-06-11 16:33:00,72.5,39.3,26.11,North,0,0.0,0.0,30,0.00,,---,0.00,VWS V13.01,2013-06-11 22:33:00,
2013-06-11 16:38:00,72.1,39.9,26.11,North,0,0.0,0.0,31,0.00,,---,0.00,VWS V13.01,2013-06-11 22:38:00,
2013-06-11 16:43:00,71.6,39.4,26.11,North,0,0.0,0.0,31,0.00,,---,0.00,VWS V13.01,2013-06-11 22:43:00,
2013-06-11 16:48:00,71.1,39.7,26.11,North,0,0.0,0.0,32,0.00,,---,0.00,VWS V13.01,2013-06-11 22:48:00,
2013-06-11 16:53:00,70.9,38.8,26.11,North,0,0.0,0.0,31,0.00,,---,0.00,VWS V13.01,2013-06-11 22:53:00,
2013-06-11 16:58:00,70.9,37.9,26.11,North,0,0.0,0.0,30,0.00,,---,0.00,VWS V13.01,2013-06-11 22:58:00,
2013-06-11 17:03:00,70.9,37.1,26.11,North,0,0.0,0.0,29,0.00,,---,0.00,VWS V13.01,2013-06-11 23:03:00,
2013-06-11 17:08:00,70.9,34.3,26.11,North,0,0.0,0.0,26,0.00,,---,0.00,VWS V13.01,2013-06-11 23:08:00,
2013-06-11 17:13:00,71.1,34.5,26.11,North,0,0.0,0.0,26,0.00,,---,0.00,VWS V13.01,2013-06-11 23:13:00,
2013-06-11 17:18:00,71.1,33.5,26.11,North,0,0.0,0.0,25,0.00,,---,0.00,VWS V13.01,2013-06-11 23:18:00,
2013-06-11 17:23:00,71.1,33.5,26.11,North,0,0.0,0.0,25,0.00,,---,0.00,VWS V13.01,2013-06-11 23:23:00,
2013-06-11 17:28:00,70.9,33.3,26.11,North,0,0.0,0.0,25,0.00,,---,0.00,VWS V13.01,2013-06-11 23:28:00,
2013-06-11 17:33:00,70.7,33.2,26.11,North,0,0.0,0.0,25,0.00,,---,0.00,VWS V13.01,2013-06-11 23:33:00,
2013-06-11 17:38:00,70.5,33.0,26.11,North,0,0.0,0.0,25,0.00,,---,0.00,VWS V13.01,2013-06-11 23:38:00,
2013-06-11 17:43:00,70.5,33.0,26.11,North,0,0.0,0.0,25,0.00,,---,0.00,VWS V13.01,2013-06-11 23:43:00,
2013-06-11 17:48:00,70.3,32.9,26.11,North,0,0.0,0.0,25,0.00,,---,0.00,VWS V13.01,2013-06-11 23:48:00,
2013-06-11 17:53:00,70.3,32.9,26.11,North,0,0.0,0.0,25,0.00,,---,0.00,VWS V13.01,2013-06-11 23:53:00,
2013-06-11 17:58:00,70.2,32.7,26.11,North,0,0.0,0.0,25,0.00,,---,0.00,VWS V13.01,2013-06-11 23:58:00,
2013-06-11 18:03:00,69.8,33.4,26.11,North,0,0.0,0.0,26,0.00,,---,0.00,VWS V13.01,2013-06-12 00:03:00,
2013-06-11 18:08:00,69.6,34.2,26.14,North,0,0.0,0.0,27,0.00,,---,0.00,VWS V13.01,2013-06-12 00:08:00,
2013-06-11 18:13:00,69.6,35.1,26.14,North,0,0.0,0.0,28,0.00,,---,0.00,VWS V13.01,2013-06-12 00:13:00,
2013-06-11 18:18:00,69.4,35.0,26.14,North,0,0.0,0.0,28,0.00,,---,0.00,VWS V13.01,2013-06-12 00:18:00,
2013-06-11 18:23:00,69.4,36.7,26.14,North,0,0.0,0.0,30,0.00,,---,0.00,VWS V13.01,2013-06-12 00:23:00,
2013-06-11 18:28:00,69.4,36.7,26.14,North,0,0.0,0.0,30,0.00,,---,0.00,VWS V13.01,2013-06-12 00:28:00,
2013-06-11 18:33:00,69.4,36.7,26.14,North,0,0.0,0.0,30,0.00,,---,0.00,VWS V13.01,2013-06-12 00:33:00,
2013-06-11 18:38:00,69.4,36.7,26.11,North,0,0.0,0.0,30,0.00,,---,0.00,VWS V13.01,2013-06-12 00:38:00,
2013-06-11 18:43:00,69.4,36.7,26.11,North,0,0.0,0.0,30,0.00,,---,0.00,VWS V13.01,2013-06-12 00:43:00,
2013-06-11 18:48:00,69.4,35.8,26.11,North,0,0.0,0.0,29,0.00,,---,0.00,VWS V13.01,2013-06-12 00:48:00,
2013-06-11 18:53:00,69.4,35.8,26.14,North,0,0.0,0.0,29,0.00,,---,0.00,VWS V13.01,2013-06-12 00:53:00,
2013-06-11 18:58:00,69.3,35.7,26.14,North,0,0.0,0.0,29,0.00,,---,0.00,VWS V13.01,2013-06-12 00:58:00,
2013-06-11 19:03:00,69.3,34.8,26.14,North,0,0.0,0.0,28,0.00,,---,0.00,VWS V13.01,2013-06-12 01:03:00,
2013-06-11 19:08:00,69.1,34.6,26.14,North,0,0.0,0.0,28,0.00,,---,0.00,VWS V13.01,2013-06-12 01:08:00,
2013-06-11 19:13:00,69.1,35.5,26.14,North,0,0.0,0.0,29,0.00,,---,0.00,VWS V13.01,2013-06-12 01:13:00,
2013-06-11 19:18:00,68.9,35.4,26.14,North,0,0.0,0.0,29,0.00,,---,0.00,VWS V13.01,2013-06-12 01:18:00,
2013-06-11 19:23:00,68.9,35.4,26.14,North,0,0.0,0.0,29,0.00,,---,0.00,VWS V13.01,2013-06-12 01:23:00,
2013-06-11 19:28:00,68.9,34.5,26.14,North,0,0.0,0.0,28,0.00,,---,0.00,VWS V13.01,2013-06-12 01:28:00,
2013-06-11 19:33:00,68.9,34.5,26.14,North,0,0.0,0.0,28,0.00,,---,0.00,VWS V13.01,2013-06-12 01:33:00,
2013-06-11 19:38:00,68.7,34.3,26.14,North,0,0.0,0.0,28,0.00,,---,0.00,VWS V13.01,2013-06-12 01:38:00,
2013-06-11 19:43:00,68.7,34.3,26.14,North,0,0.0,0.0,28,0.00,,---,0.00,VWS V13.01,2013-06-12 01:43:00,
2013-06-11 19:48:00,68.7,34.3,26.14,North,0,0.0,0.0,28,0.00,,---,0.00,VWS V13.01,2013-06-12 01:48:00,
2013-06-11 19:53:00,68.7,34.3,26.14,North,0,0.0,0.0,28,0.00,,---,0.00,VWS V13.01,2013-06-12 01:53:00,
2013-06-11 19:58:00,68.7,34.3,26.14,North,0,0.0,0.0,28,0.00,,---,0.00,VWS V13.01,2013-06-12 01:58:00,
2013-06-11 20:03:00,68.7,34.3,26.14,North,0,0.0,0.0,28,0.00,,---,0.00,VWS V13.01,2013-06-12 02:03:00,
2013-06-11 20:08:00,68.7,34.3,26.14,North,0,0.0,0.0,28,0.00,,---,0.00,VWS V13.01,2013-06-12 02:08:00,
2013-06-11 20:13:00,68.5,35.9,26.14,North,0,0.0,0.0,30,0.00,,---,0.00,VWS V13.01,2013-06-12 02:13:00,
2013-06-11 20:18:00,68.4,35.8,26.14,North,0,0.0,0.0,30,0.00,,---,0.00,VWS V13.01,2013-06-12 02:18:00,
2013-06-11 20:23:00,68.2,36.4,26.14,North,0,0.0,0.0,31,0.00,,---,0.00,VWS V13.01,2013-06-12 02:23:00,
2013-06-11 20:28:00,68.0,36.3,26.14,North,0,0.0,0.0,31,0.00,,---,0.00,VWS V13.01,2013-06-12 02:28:00,
2013-06-11 20:33:00,67.8,36.1,26.14,North,0,0.0,0.0,31,0.00,,---,0.00,VWS V13.01,2013-06-12 02:33:00,
2013-06-11 20:38:00,67.6,36.8,26.14,North,0,0.0,0.0,32,0.00,,---,0.00,VWS V13.01,2013-06-12 02:38:00,
2013-06-11 20:43:00,67.5,36.6,26.14,North,0,0.0,0.0,32,0.00,,---,0.00,VWS V13.01,2013-06-12 02:43:00,
2013-06-11 20:48:00,67.3,36.4,26.14,North,0,0.0,0.0,32,0.00,,---,0.00,VWS V13.01,2013-06-12 02:48:00,
2013-06-11 20:53:00,67.3,36.4,26.14,North,0,0.0,0.0,32,0.00,,---,0.00,VWS V13.01,2013-06-12 02:53:00,
2013-06-11 20:58:00,67.3,36.4,26.14,North,0,0.0,0.0,32,0.00,,---,0.00,VWS V13.01,2013-06-12 02:58:00,
2013-06-11 21:03:00,67.5,36.6,26.14,North,0,0.0,0.0,32,0.00,,---,0.00,VWS V13.01,2013-06-12 03:03:00,
2013-06-11 21:08:00,67.6,36.8,26.17,North,0,0.0,0.0,32,0.00,,---,0.00,VWS V13.01,2013-06-12 03:08:00,
2013-06-11 21:13:00,68.2,35.6,26.17,North,0,0.0,0.0,30,0.00,,---,0.00,VWS V13.01,2013-06-12 03:13:00,
2013-06-11 21:18:00,68.4,34.9,26.17,North,0,0.0,0.0,29,0.00,,---,0.00,VWS V13.01,2013-06-12 03:18:00,
2013-06-11 21:23:00,68.5,35.0,26.14,North,0,0.0,0.0,29,0.00,,---,0.00,VWS V13.01,2013-06-12 03:23:00,
2013-06-11 21:28:00,68.4,34.9,26.14,North,0,0.0,0.0,29,0.00,,---,0.00,VWS V13.01,2013-06-12 03:28:00,
2013-06-11 21:33:00,68.4,34.9,26.14,North,0,0.0,0.0,29,0.00,,---,0.00,VWS V13.01,2013-06-12 03:33:00,
2013-06-11 21:38:00,68.4,35.8,26.17,North,0,0.0,0.0,30,0.00,,---,0.00,VWS V13.01,2013-06-12 03:38:00,
2013-06-11 21:43:00,68.2,35.6,26.17,North,0,0.0,0.0,30,0.00,,---,0.00,VWS V13.01,2013-06-12 03:43:00,
2013-06-11 21:48:00,68.2,35.6,26.17,North,0,0.0,0.0,30,0.00,,---,0.00,VWS V13.01,2013-06-12 03:48:00,
2013-06-11 21:53:00,68.2,36.4,26.17,North,0,0.0,0.0,31,0.00,,---,0.00,VWS V13.01,2013-06-12 03:53:00,
2013-06-11 21:58:00,68.0,36.3,26.17,North,0,0.0,0.0,31,0.00,,---,0.00,VWS V13.01,2013-06-12 03:58:00,
2013-06-11 22:01:00,68.0,36.3,26.17,North,0,0.0,0.0,31,0.00,,---,0.00,VWS V13.01,2013-06-12 04:01:00,
2013-06-11 22:02:00,68.0,36.3,26.17,North,0,0.0,0.0,31,0.00,,---,0.00,VWS V13.01,2013-06-12 04:02:00,
2013-06-11 22:04:00,68.0,36.3,26.17,North,0,0.0,0.0,31,0.00,,---,0.00,VWS V13.01,2013-06-12 04:04:00,
2013-06-11 22:09:00,68.0,35.4,26.17,North,0,0.0,0.0,30,0.00,,---,0.00,VWS V13.01,2013-06-12 04:09:00,
2013-06-11 22:14:00,68.2,35.6,26.17,North,0,0.0,0.0,30,0.00,,---,0.00,VWS V13.01,2013-06-12 04:14:00,
2013-06-11 22:19:00,68.2,35.6,26.17,North,0,0.0,0.0,30,0.00,,---,0.00,VWS V13.01,2013-06-12 04:19:00,
2013-06-11 22:24:00,68.2,35.6,26.17,North,0,0.0,0.0,30,0.00,,---,0.00,VWS V13.01,2013-06-12 04:24:00,
2013-06-11 22:29:00,68.2,34.7,26.17,North,0,0.0,0.0,29,0.00,,---,0.00,VWS V13.01,2013-06-12 04:29:00,
2013-06-11 22:34:00,68.2,34.7,26.17,North,0,0.0,0.0,29,0.00,,---,0.00,VWS V13.01,2013-06-12 04:34:00,
2013-06-11 22:39:00,68.2,33.9,26.17,North,0,0.0,0.0,28,0.00,,---,0.00,VWS V13.01,2013-06-12 04:39:00,
2013-06-11 22:44:00,68.2,33.9,26.17,North,0,0.0,0.0,28,0.00,,---,0.00,VWS V13.01,2013-06-12 04:44:00,
2013-06-11 22:49:00,68.2,33.9,26.17,North,0,0.0,0.0,28,0.00,,---,0.00,VWS V13.01,2013-06-12 04:49:00,
2013-06-11 22:54:00,68.0,34.6,26.17,North,0,0.0,0.0,29,0.00,,---,0.00,VWS V13.01,2013-06-12 04:54:00,
2013-06-11 22:59:00,67.8,34.4,26.17,North,0,0.0,0.0,29,0.00,,---,0.00,VWS V13.01,2013-06-12 04:59:00,
2013-06-11 23:04:00,67.6,35.1,26.17,North,0,0.0,0.0,30,0.00,,---,0.00,VWS V13.01,2013-06-12 05:04:00,
2013-06-11 23:09:00,67.5,35.0,26.17,North,0,0.0,0.0,30,0.00,,---,0.00,VWS V13.01,2013-06-12 05:09:00,
2013-06-11 23:14:00,67.3,34.8,26.17,North,0,0.0,0.0,30,0.00,,---,0.00,VWS V13.01,2013-06-12 05:14:00,
2013-06-11 23:19:00,67.1,34.7,26.17,North,0,0.0,0.0,30,0.00,,---,0.00,VWS V13.01,2013-06-12 05:19:00,
2013-06-11 23:24:00,66.9,35.3,26.14,North,0,0.0,0.0,31,0.00,,---,0.00,VWS V13.01,2013-06-12 05:24:00,